Wind_Speed
26 27 27 30 31 32 37 41 43 38 38 38 38 36 36 34 34 33 30 29 30 30 30 29 31 32 30 26 23 24 23 32
28 27 29 28 32 31 37 44 46 41 40 39 39 38 37 35 35 34 32 31 32 32 31 29 29 35 30 28 27 27 35 35
25 27 31 31 31 35 38 42 48 49 38 39 39 39 37 35 34 34 32 32 32 33 30 29 31 32 40 39 29 28 36 41
26 26 27 29 32 34 38 45 51 46 36 40 39 40 37 34 33 30 30 31 33 33 28 29 32 33 34 27 32 30 42 43
23 24 30 31 32 36 43 47 47 44 34 37 38 40 37 31 27 28 29 31 34 32 29 29 31 35 35 28 37 29 34 45
15 20 23 30 33 35 40 42 40 41 32 34 36 39 35 29 29 29 30 33 33 31 31 31 31 37 36 31 35 43 45 46
8 10 17 25 28 34 37 41 38 37 32 32 36 36 32 30 29 28 30 33 30 31 31 33 33 35 38 36 38 38 41 38
1 8 11 13 22 31 37 39 33 34 29 31 35 33 30 30 29 28 31 29 28 29 30 27 31 32 39 33 36 35 42 38
10 11 4 12 16 30 32 36 32 34 29 30 33 33 28 29 27 28 28 28 28 27 28 26 25 33 37 35 36 40 37 44
12 12 11 14 19 28 34 33 28 31 30 29 29 28 29 24 24 24 27 26 26 25 23 25 30 31 33 29 38 37 36 42
5 14 15 14 25 29 30 26 28 31 29 27 28 28 25 23 19 22 24 23 23 24 23 24 28 28 35 37 34 31 40 44
4 16 17 16 16 16 22 29 32 30 29 29 31 27 22 21 17 19 21 20 19 19 21 22 29 19 27 40 31 34 35 44
7 9 18 16 16 12 13 25 29 29 28 31 30 25 20 19 16 17 17 15 12 13 22 20 26 26 27 37 38 36 42 38
9 3 10 18 17 15 16 21 26 30 31 33 28 23 19 18 15 15 15 10 9 7 9 12 17 19 27 21 36 30 40 33
10 5 3 12 19 17 20 22 25 25 28 29 28 23 19 18 15 13 13 7 5 6 10 21 14 17 22 27 29 40 37 35
8 8 5 6 14 19 22 22 21 25 27 29 27 24 20 18 15 14 13 9 8 9 9 11 10 6 14 19 30 37 36 31
9 8 9 8 8 13 21 19 16 23 28 30 29 26 23 20 17 14 13 10 13 13 15 15 16 19 15 16 18 19 21 24
7 7 12 11 12 12 16 22 30 35 29 34 32 29 26 23 19 18 17 19 17 16 16 16 16 18 19 18 17 21 25 23
12 10 9 16 16 17 19 22 28 32 31 37 34 31 28 26 23 21 19 19 20 20 19 19 17 16 16 18 22 24 25 26
Wind_Direction
240 243 239 237 237 231 233 245 253 246 245 243 239 244 248 252 258 261 267 275 280 290 284 269 250 242 242 236 232 223 228 203
231 235 237 231 226 226 232 242 249 252 238 239 238 245 250 256 263 266 266 270 276 287 283 269 255 244 248 229 235 220 206 206
248 239 238 232 229 220 226 236 245 251 236 234 240 246 253 259 262 263 262 267 275 286 276 269 249 242 235 234 231 207 207 202
242 236 237 244 235 222 224 230 241 250 238 233 239 244 250 259 264 259 260 270 274 281 269 263 251 239 236 235 215 214 210 205
231 231 230 228 239 239 228 234 240 256 240 234 239 246 253 263 260 255 261 271 278 275 266 259 253 242 237 225 214 220 214 213
257 244 239 225 226 238 234 239 247 253 240 236 241 245 252 263 251 258 269 274 277 270 266 263 250 239 228 223 231 228 216 208
277 264 262 221 230 226 237 237 246 250 239 237 242 243 253 249 253 263 272 276 273 268 269 263 248 236 227 230 230 223 210 216
231 295 275 259 227 219 233 237 245 244 236 234 240 243 250 249 261 271 278 278 273 269 267 253 239 237 227 225 225 220 216 211
224 200 196 203 222 227 230 234 244 240 234 233 236 242 239 248 266 278 281 280 274 268 259 251 243 234 225 226 215 211 224 212
225 231 184 208 224 225 231 240 238 230 236 235 229 229 236 251 268 279 283 281 275 266 265 251 243 222 221 213 212 214 214 207
276 184 187 188 220 229 236 230 223 232 232 228 222 226 238 257 273 281 284 279 273 269 259 247 225 229 224 204 216 214 199 202
292 189 187 196 234 238 225 217 217 226 224 213 219 226 243 263 275 283 286 276 274 257 253 221 208 221 214 212 210 222 208 203
332 198 192 207 235 201 206 206 210 214 219 215 219 226 244 260 275 283 280 270 273 254 227 240 218 227 220 211 218 203 219 200
339 248 214 218 226 217 203 207 210 217 211 218 223 229 242 256 271 280 269 267 249 273 208 198 186 196 190 199 207 220 201 205
332 306 238 230 225 216 205 207 219 221 219 217 226 230 236 248 262 270 253 251 220 202 186 167 174 183 198 202 208 214 209 208
320 313 264 252 238 224 208 204 213 221 220 220 222 227 231 240 253 258 237 219 202 170 151 157 171 195 184 193 203 206 209 211
306 292 276 249 249 245 230 208 222 242 219 226 221 222 227 233 241 247 230 214 205 202 202 208 209 223 222 208 203 206 215 213
301 316 270 253 250 239 237 219 217 233 228 228 225 223 223 228 233 238 228 209 213 214 212 217 216 221 222 223 220 225 221 224
319 319 316 267 256 237 224 216 212 219 224 228 221 224 225 226 226 232 229 223 212 215 218 220 221 215 209 210 213 217 221 221
Height
3046 3047 3049 3052 3055 3058 3062 3057 3058 3067 3070 3074 3077 3080 3082 3083 3085 3087 3088 3089 3088 3087 3086 3086 3087 3090 3093 3094 3097 3099 3103 3107
3038 3042 3044 3045 3049 3053 3055 3052 3051 3057 3063 3066 3070 3073 3076 3078 3079 3080 3081 3083 3083 3081 3080 3079 3080 3083 3087 3086 3091 3096 3099 3104
3031 3033 3036 3038 3040 3044 3048 3046 3042 3049 3056 3060 3063 3067 3069 3071 3073 3074 3074 3075 3076 3075 3073 3073 3074 3077 3077 3082 3087 3090 3094 3099
3025 3027 3029 3030 3032 3036 3039 3038 3034 3040 3048 3052 3056 3059 3062 3064 3066 3067 3068 3068 3069 3068 3067 3068 3068 3071 3071 3073 3082 3086 3089 3094
3015 3017 3019 3023 3025 3028 3030 3031 3034 3032 3039 3045 3048 3052 3056 3058 3059 3060 3061 3061 3061 3060 3060 3060 3062 3064 3068 3073 3078 3081 3086 3089
3009 3009 3010 3014 3018 3019 3020 3024 3028 3023 3032 3038 3042 3045 3050 3051 3052 3053 3053 3053 3052 3052 3052 3052 3055 3058 3061 3067 3071 3074 3080 3084
3004 3004 3004 3005 3009 3012 3012 3016 3021 3020 3026 3032 3035 3040 3043 3044 3046 3046 3046 3045 3044 3043 3043 3043 3046 3050 3055 3059 3063 3066 3074 3079
2996 2999 3000 3000 3002 3005 3005 3009 3016 3014 3021 3026 3029 3034 3036 3037 3038 3039 3039 3038 3036 3036 3036 3036 3038 3042 3047 3051 3056 3062 3068 3073
2991 2991 2992 2997 2999 2998 3002 3006 3011 3010 3015 3020 3024 3028 3031 3032 3032 3032 3031 3029 3028 3029 3028 3029 3031 3033 3038 3043 3049 3055 3060 3067
2987 2987 2987 2994 2991 2994 2998 3003 3006 3007 3010 3015 3018 3022 3026 3027 3027 3027 3024 3023 3022 3021 3020 3021 3022 3026 3032 3036 3043 3049 3054 3062
2983 2984 2982 2983 2988 2992 2996 2998 3000 3002 3006 3010 3014 3017 3021 3021 3022 3021 3019 3018 3016 3014 3014 3014 3015 3020 3026 3033 3037 3043 3050 3057
2979 2980 2979 2979 2983 2987 2986 2990 2993 2997 3002 3006 3009 3013 3015 3016 3016 3015 3014 3013 3011 3009 3009 3010 3012 3016 3021 3027 3033 3039 3046 3053
2974 2975 2976 2976 2977 2981 2982 2985 2989 2994 2998 3002 3006 3008 3011 3012 3012 3011 3011 3010 3006 3005 3005 3005 3008 3013 3016 3023 3028 3036 3042 3049
2971 2971 2972 2974 2975 2978 2980 2983 2988 2990 2994 2999 3003 3005 3006 3008 3008 3008 3008 3006 3005 3003 3001 3003 3006 3008 3014 3019 3025 3031 3039 3045
2968 2969 2969 2970 2972 2976 2978 2981 2985 2989 2992 2995 2999 3000 3002 3004 3004 3004 3006 3004 3004 3004 3003 3005 3007 3010 3015 3019 3023 3029 3035 3040
2967 2967 2966 2967 2968 2972 2975 2977 2981 2986 2989 2992 2994 2996 2998 3000 3000 3002 3003 3002 3003 3003 3005 3006 3009 3011 3014 3018 3022 3027 3031 3037
2964 2965 2965 2965 2966 2968 2970 2972 2976 2982 2984 2988 2990 2992 2994 2996 2997 2999 3000 3001 3002 3003 3004 3006 3007 3011 3016 3018 3022 3025 3028 3032
2962 2962 2963 2963 2963 2965 2966 2968 2972 2978 2981 2984 2986 2988 2990 2992 2994 2995 2997 2998 3000 3001 3003 3004 3006 3009 3013 3016 3020 3022 3026 3028
2960 2960 2960 2961 2961 2961 2963 2965 2968 2972 2976 2978 2981 2984 2987 2989 2991 2993 2994 2995 2998 3000 3001 3003 3005 3008 3010 3013 3016 3019 3022 3025